Flag for U.S.A. Weather past 2 weeks in Anaheim, California, U.S.A.

Now
64 °F

Scattered clouds.


Feels Like: 64 °F
Forecast: 51 / 62 °F
Wind: 9 mph from West

Location: Fullerton Municipal Airport

Current Time: Dec 17, 2014 at 3:40:15 PM

Latest Report: Dec 17, 2014 at 2:53 PM


Visibility: 10 mi

Pressure: 30.04 "Hg

Humidity: 49%

Dew point: 44 °F

Location of AnaheimLocation

Historic Weather in Anaheim — Graph

°F

Anaheim temperature yesterday

Maximum temperature yesterday: 62 °F (at 12:53 PM)
Minimum temperature yesterday: 55 °F (at 4:53 AM)
Average temperature yesterday: 58 °F

Past Weeks' High & Low Weather Summary

 TemperatureHumidityPressure
High80 °F (Dec 8, 1:53 PM)94% (Dec 3, 7:53 PM)30.20 "Hg (Dec 3, 7:53 PM)
Low47 °F (Dec 14, 5:53 AM)26% (Dec 8, 1:53 PM)29.82 "Hg (Dec 12, 3:53 AM)
Average61 °F74%30.02 "Hg
* Reported Dec 2 1:04 PM — Dec 17 1:53 PM, Anaheim, Weather by CustomWeather, © 2014

Note: Actual official high and low records may vary slightly from our data, if they occured in-between our weather recording intervals... More about our weather records

Advertising

Anaheim weather history for previous 24 hours

 ConditionsComfort  
Time TempWeatherWind HumidityBarometerVisibility
1:53 PM
Dec 17
65 °FBroken clouds.6 mph45%30.03 "Hg10 mi
12:53 PM66 °FBroken clouds.5 mph49%30.03 "Hg10 mi
11:53 AM64 °FScattered clouds.3 mph56%30.03 "Hg10 mi
10:53 AM62 °FScattered clouds.5 mph62%30.05 "Hg10 mi
9:53 AM60 °FBroken clouds.8 mph67%30.05 "Hg10 mi
8:53 AM60 °FPartly sunny.5 mph67%30.03 "Hg10 mi
7:53 AM56 °FPartly sunny.7 mph77%30.01 "Hg10 mi
7:01 AM53 °FCloudy.6 mph83%29.99 "Hg10 mi
5:53 AM53 °FMostly cloudy.6 mph83%29.97 "Hg10 mi
4:53 AM53 °FPassing clouds.No wind77%29.96 "Hg10 mi
4:03 AM56 °FRain. Fog.14 mph90%29.98 "Hg2 mi
3:55 AM56 °FRain. Fog.3 mph90%29.97 "Hg2 mi
2:53 AM56 °FMostly cloudy.3 mph90%29.96 "Hg10 mi
1:53 AM57 °FOvercast.No wind83%29.96 "Hg10 mi
12:53 AM57 °FLight rain. Partly cloudy.5 mph81%29.96 "Hg10 mi
11:53 PM
Dec 16
55 °FOvercast.5 mph90%29.98 "Hg9 mi
10:53 PM56 °FLight rain. Overcast.6 mph87%30.00 "Hg8 mi
9:53 PM56 °FMostly cloudy.3 mph84%30.00 "Hg9 mi
8:53 PM56 °FOvercast.5 mph84%30.00 "Hg10 mi
7:53 PM56 °FClear.6 mph84%29.98 "Hg10 mi
6:53 PM58 °FPartly cloudy.3 mph81%29.98 "Hg10 mi
5:53 PM58 °FPartly cloudy.3 mph81%29.97 "Hg10 mi
4:53 PM59 °FPassing clouds.6 mph81%29.97 "Hg10 mi
3:53 PM60 °FPartly sunny.7 mph78%29.96 "Hg10 mi
Weather by CustomWeather, © 2014

See weather overviewHow to use our weather pages